,,Stat5,,Stat1,,Stat2,,Stat3,,Stat4,,Wind1,,Wind1,
time,status,PA1M_AVG,status,PR1M_SUM,status,RH1M_AVG,status,SR1M_AVG,status,TA1M_AVG,status,W1dAve1m,status,W1sAve1m,
2001-10-10, 00:00:00,VALID,920.132,VALID,0,VALID,94.8197,VALID,0,VALID,18.8381,VALID,15,VALID,0,
2001-10-10, 00:01:00,VALID,920.132,VALID,0,VALID,94.6519,VALID,-0.0169808,VALID,18.8579,VALID,15,VALID,0,
2001-10-10, 00:02:00,VALID,920.139,VALID,0,VALID,94.5756,VALID,0,VALID,18.8579,VALID,15,VALID,0,
2001-10-10, 00:03:00,VALID,920.148,VALID,0,VALID,94.5057,VALID,0,VALID,18.881,VALID,15,VALID,0,
2001-10-10, 00:04:00,VALID,920.132,VALID,0,VALID,94.2475,VALID,0,VALID,18.8775,VALID,15,VALID,0,
2001-10-10, 00:05:00,VALID,920.134,VALID,0,VALID,94.1407,VALID,0,VALID,18.8485,VALID,15,VALID,0,
2001-10-10, 00:06:00,VALID,920.147,VALID,0,VALID,94.3187,VALID,0,VALID,18.8447,VALID,15,VALID,0,
2001-10-10, 00:07:00,VALID,920.122,VALID,0,VALID,94.3798,VALID,-0.0169808,VALID,18.8547,VALID,15,VALID,0.0474609,
2001-10-10, 00:08:00,VALID,920.107,VALID,0,VALID,94.3976,VALID,-0.0339617,VALID,18.9063,VALID,15,VALID,0.0345052,
2001-10-10, 00:09:00,VALID,920.086,VALID,0,VALID,94.1216,VALID,0,VALID,18.9709,VALID,15,VALID,0.0169271,
2001-10-10, 00:10:00,VALID,920.052,VALID,0,VALID,93.66,VALID,0,VALID,18.9739,VALID,15,VALID,0.000211149,
2001-10-10, 00:11:00,VALID,920.041,VALID,0,VALID,93.2328,VALID,-0.0169808,VALID,18.9223,VALID,15,VALID,0.10074,
2001-10-10, 00:12:00,VALID,920.015,VALID,0,VALID,93.6015,VALID,0,VALID,18.9098,VALID,24,VALID,0.215372,
2001-10-10, 00:13:00,VALID,920,VALID,0,VALID,93.7872,VALID,0,VALID,18.9061,VALID,28,VALID,0,
2001-10-10, 00:14:00,VALID,919.985,VALID,0,VALID,93.7783,VALID,-0.0169808,VALID,18.9059,VALID,28,VALID,0.000223214,
2001-10-10, 00:15:00,VALID,919.986,VALID,0,VALID,93.8838,VALID,-0.0169808,VALID,18.9292,VALID,28,VALID,0.332648,
2001-10-10, 00:16:00,VALID,919.987,VALID,0,VALID,93.6689,VALID,0,VALID,18.9292,VALID,32,VALID,0.229941,
2001-10-10, 00:17:00,VALID,919.978,VALID,0,VALID,93.7847,VALID,0,VALID,18.9354,VALID,22,VALID,0.297828,
2001-10-10, 00:18:00,VALID,919.976,VALID,0,VALID,93.7312,VALID,0,VALID,18.958,VALID,19,VALID,0.0283203,
2001-10-10, 00:19:00,VALID,919.992,VALID,0,VALID,93.6041,VALID,0,VALID,18.9742,VALID,19,VALID,0.00102796,
2001-10-10, 00:20:00,VALID,919.995,VALID,0,VALID,93.6422,VALID,0.0169808,VALID,18.97,VALID,355,VALID,0.246299,
2001-10-10, 00:21:00,VALID,919.974,VALID,0,VALID,93.6308,VALID,0.0169808,VALID,19.0422,VALID,347,VALID,0.0628906,
2001-10-10, 00:22:00,VALID,919.95,VALID,0,VALID,92.9022,VALID,-0.0679233,VALID,19.0455,VALID,10,VALID,0.277444,
2001-10-10, 00:23:00,VALID,919.933,VALID,0,VALID,92.7152,VALID,0,VALID,18.9705,VALID,13,VALID,0.153348,
2001-10-10, 00:24:00,VALID,919.94,VALID,0,VALID,93.1234,VALID,0,VALID,18.9488,VALID,16,VALID,0.19082,
2001-10-10, 00:25:00,VALID,919.929,VALID,0,VALID,93.4693,VALID,0,VALID,18.9583,VALID,20,VALID,0.723958,
2001-10-10, 00:26:00,VALID,919.935,VALID,0,VALID,93.3205,VALID,-0.0169808,VALID,18.952,VALID,24,VALID,0.125217,
2001-10-10, 00:27:00,VALID,919.935,VALID,0,VALID,93.2518,VALID,0,VALID,18.9424,VALID,26,VALID,0.0332532,
2001-10-10, 00:28:00,VALID,919.946,VALID,0,VALID,93.3358,VALID,0,VALID,18.9354,VALID,32,VALID,0.128495,
2001-10-10, 00:29:00,VALID,919.949,VALID,0,VALID,93.5901,VALID,0,VALID,18.9615,VALID,34,VALID,0.447163,
2001-10-10, 00:30:00,VALID,919.955,VALID,0,VALID,93.4655,VALID,0,VALID,19.0095,VALID,36,VALID,0.418497,
2001-10-10, 00:31:00,VALID,919.962,VALID,0,VALID,92.9835,VALID,0,VALID,19.0544,VALID,37,VALID,0.452908,
2001-10-10, 00:32:00,VALID,919.962,VALID,0,VALID,92.8411,VALID,-0.0169808,VALID,19.0614,VALID,38,VALID,0.175465,
2001-10-10, 00:33:00,VALID,919.958,VALID,0,VALID,92.8208,VALID,-0.0169808,VALID,19.0646,VALID,38,VALID,0.0744243,
2001-10-10, 00:34:00,VALID,919.959,VALID,0,VALID,92.6567,VALID,-0.0339617,VALID,19.0614,VALID,38,VALID,0.198918,
2001-10-10, 00:35:00,VALID,919.938,VALID,0,VALID,92.6885,VALID,0,VALID,19.0646,VALID,37,VALID,0.255208,
2001-10-10, 00:36:00,VALID,919.919,VALID,0,VALID,92.5067,VALID,-0.0169808,VALID,19.0676,VALID,37,VALID,0.142314,
2001-10-10, 00:37:00,VALID,919.891,VALID,0,VALID,92.3897,VALID,-0.0169808,VALID,19.0522,VALID,15,VALID,0.370477,
2001-10-10, 00:38:00,VALID,919.895,VALID,0,VALID,92.3477,VALID,0,VALID,19.033,VALID,5,VALID,0.566506,
2001-10-10, 00:39:00,VALID,919.868,VALID,0,VALID,92.513,VALID,0,VALID,18.9605,VALID,10,VALID,0.73778,
2001-10-10, 00:40:00,VALID,919.851,VALID,0,VALID,92.7356,VALID,0.0339617,VALID,18.9093,VALID,8,VALID,0.828585,
2001-10-10, 00:41:00,VALID,919.837,VALID,0,VALID,93.0878,VALID,-0.0169808,VALID,18.8835,VALID,7,VALID,0.677426,
2001-10-10, 00:42:00,VALID,919.829,VALID,0,VALID,93.2201,VALID,-0.0169808,VALID,18.8674,VALID,11,VALID,1.27302,
2001-10-10, 00:43:00,VALID,919.802,VALID,0,VALID,93.4896,VALID,0,VALID,18.8676,VALID,10,VALID,1.45855,
2001-10-10, 00:44:00,VALID,919.801,VALID,0,VALID,93.5074,VALID,0,VALID,18.9287,VALID,343,VALID,0.89822,
2001-10-10, 00:45:00,VALID,919.792,VALID,0,VALID,93.468,VALID,0.0169808,VALID,19.0005,VALID,341,VALID,0.597245,
2001-10-10, 00:46:00,VALID,919.786,VALID,0,VALID,93.2086,VALID,-0.0339617,VALID,19.0554,VALID,334,VALID,0.591639,
2001-10-10, 00:47:00,VALID,919.752,VALID,0,VALID,92.5283,VALID,-0.0169808,VALID,19.0912,VALID,13,VALID,0.411161,
2001-10-10, 00:48:00,VALID,919.753,VALID,0,VALID,92.4902,VALID,-0.0169808,VALID,19.0847,VALID,357,VALID,0.5,
2001-10-10, 00:49:00,VALID,919.726,VALID,0,VALID,92.4317,VALID,-0.0339617,VALID,19.0778,VALID,341,VALID,0.2794,
2001-10-10, 00:50:00,VALID,919.705,VALID,0,VALID,92.2981,VALID,-0.0339617,VALID,19.0646,VALID,262,VALID,0.0965545,
2001-10-10, 00:51:00,VALID,919.675,VALID,0,VALID,92.2651,VALID,-0.0169808,VALID,19.0355,VALID,6,VALID,0.10625,
2001-10-10, 00:52:00,VALID,919.621,VALID,0,VALID,92.3579,VALID,0,VALID,19.0092,VALID,6,VALID,0.000205592,
2001-10-10, 00:53:00,VALID,919.61,VALID,0,VALID,92.5995,VALID,0,VALID,18.9998,VALID,310,VALID,0.289696,
2001-10-10, 00:54:00,VALID,919.589,VALID,0,VALID,92.9174,VALID,0.0169808,VALID,18.9931,VALID,248,VALID,0.125,
2001-10-10, 00:55:00,VALID,919.551,VALID,0,VALID,92.7012,VALID,0,VALID,18.9675,VALID,2,VALID,0.647636,
2001-10-10, 00:56:00,VALID,919.496,VALID,0,VALID,92.9454,VALID,0,VALID,18.9416,VALID,19,VALID,0.661258,
2001-10-10, 00:57:00,VALID,919.496,VALID,0,VALID,93.3078,VALID,0,VALID,18.9389,VALID,331,VALID,0.433036,
2001-10-10, 00:58:00,VALID,919.491,VALID,0,VALID,93.7745,VALID,0,VALID,18.9285,VALID,296,VALID,0.335938,
2001-10-10, 00:59:00,VALID,919.464,VALID,0,VALID,94.0886,VALID,0,VALID,18.9906,VALID,4,VALID,0.688585,
2001-10-10, 01:00:00,VALID,919.437,VALID,0,VALID,94.0326,VALID,0.0339617,VALID,19.0062,VALID,4,VALID,0.150825,
2001-10-10, 01:01:00,VALID,919.418,VALID,0,VALID,94.0466,VALID,0,VALID,19.0452,VALID,279,VALID,0.25739,
2001-10-10, 01:02:00,VALID,919.423,VALID,0,VALID,93.8978,VALID,-0.0849042,VALID,19.0616,VALID,291,VALID,0.440584,
2001-10-10, 01:03:00,VALID,919.418,VALID,0,VALID,93.9881,VALID,-0.101885,VALID,19.1182,VALID,333,VALID,0.642948,
2001-10-10, 01:04:00,VALID,919.398,VALID,0,VALID,93.5774,VALID,-0.101885,VALID,19.1046,VALID,12,VALID,0.907095,
2001-10-10, 01:05:00,VALID,919.379,VALID,0,VALID,93.7338,VALID,-0.101885,VALID,19.1175,VALID,309,VALID,0.491071,
2001-10-10, 01:06:00,VALID,919.393,VALID,0,VALID,93.5837,VALID,-0.118866,VALID,19.1339,VALID,13,VALID,0.0859375,
2001-10-10, 01:07:00,VALID,919.398,VALID,0,VALID,93.5469,VALID,-0.101885,VALID,19.1401,VALID,347,VALID,0.216216,
2001-10-10, 01:08:00,VALID,919.378,VALID,0,VALID,93.3739,VALID,-0.101885,VALID,19.1632,VALID,12,VALID,0.458079,
2001-10-10, 01:09:00,VALID,919.364,VALID,0,VALID,93.2162,VALID,-0.101885,VALID,19.1366,VALID,8,VALID,0.681836,
2001-10-10, 01:10:00,VALID,919.354,VALID,0,VALID,93.4362,VALID,-0.101885,VALID,19.1307,VALID,2,VALID,0.648643,
2001-10-10, 01:11:00,VALID,919.328,VALID,0,VALID,93.028,VALID,-0.118866,VALID,19.1138,VALID,9,VALID,0.684211,
2001-10-10, 01:12:00,VALID,919.321,VALID,0,VALID,93.098,VALID,-0.101885,VALID,19.111,VALID,338,VALID,0.513477,
2001-10-10, 01:13:00,VALID,919.326,VALID,0,VALID,93.3676,VALID,-0.0849042,VALID,19.1627,VALID,339,VALID,0.301883,
2001-10-10, 01:14:00,VALID,919.297,VALID,0,VALID,93.4299,VALID,-0.101885,VALID,19.1791,VALID,314,VALID,0.505357,
2001-10-10, 01:15:00,VALID,919.291,VALID,0,VALID,93.2938,VALID,-0.101885,VALID,19.244,VALID,353,VALID,0.669922,
2001-10-10, 01:16:00,VALID,919.27,VALID,0,VALID,92.8704,VALID,-0.101885,VALID,19.2539,VALID,345,VALID,0.649089,
2001-10-10, 01:17:00,VALID,919.27,VALID,0,VALID,93.0141,VALID,-0.0339617,VALID,19.2457,VALID,352,VALID,0.529948,
2001-10-10, 01:18:00,VALID,919.276,VALID,0,VALID,93.0484,VALID,-0.0169808,VALID,19.2649,VALID,350,VALID,0.352364,
2001-10-10, 01:19:00,VALID,919.284,VALID,0,VALID,92.8259,VALID,0,VALID,19.2549,VALID,334,VALID,0.270765,
2001-10-10, 01:20:00,VALID,919.288,VALID,0,VALID,93.0395,VALID,0,VALID,19.2587,VALID,353,VALID,0.424753,
2001-10-10, 01:21:00,VALID,919.28,VALID,0,VALID,93.0217,VALID,0,VALID,19.2616,VALID,331,VALID,0.393792,
2001-10-10, 01:22:00,VALID,919.282,VALID,0,VALID,93.0675,VALID,-0.0169808,VALID,19.2547,VALID,297,VALID,0.404514,
2001-10-10, 01:23:00,VALID,919.3,VALID,0,VALID,92.9238,VALID,-0.0169808,VALID,19.2482,VALID,350,VALID,0.360853,
2001-10-10, 01:24:00,VALID,919.318,VALID,0,VALID,92.9899,VALID,0.0169808,VALID,19.2388,VALID,1,VALID,0.312911,
2001-10-10, 01:25:00,VALID,919.312,VALID,0,VALID,93.1845,VALID,0.0169808,VALID,19.2291,VALID,11,VALID,0.157252,
2001-10-10, 01:26:00,VALID,919.328,VALID,0,VALID,93.2099,VALID,0,VALID,19.2199,VALID,5,VALID,0.103165,
2001-10-10, 01:27:00,VALID,919.337,VALID,0,VALID,93.2747,VALID,0,VALID,19.1966,VALID,327,VALID,0.401394,
2001-10-10, 01:28:00,VALID,919.314,VALID,0,VALID,93.351,VALID,0.0339617,VALID,19.1809,VALID,319,VALID,0.243421,
2001-10-10, 01:29:00,VALID,919.291,VALID,0,VALID,93.4375,VALID,0,VALID,19.1712,VALID,360,VALID,0.372796,
2001-10-10, 01:30:00,VALID,919.256,VALID,0,VALID,93.4439,VALID,0,VALID,19.1384,VALID,357,VALID,0.0985577,
2001-10-10, 01:31:00,VALID,919.244,VALID,0,VALID,93.6193,VALID,0,VALID,19.1128,VALID,357,VALID,0,
2001-10-10, 01:32:00,VALID,919.227,VALID,0,VALID,93.7618,VALID,-0.0169808,VALID,19.0974,VALID,357,VALID,0,
2001-10-10, 01:33:00,VALID,919.207,VALID,0,VALID,93.7986,VALID,-0.0339617,VALID,19.0812,VALID,357,VALID,0,
2001-10-10, 01:34:00,VALID,919.204,VALID,0,VALID,93.7961,VALID,0,VALID,19.0549,VALID,357,VALID,0,
2001-10-10, 01:35:00,VALID,919.202,VALID,0,VALID,93.8991,VALID,-0.0339617,VALID,19.0455,VALID,2,VALID,0.132595,
2001-10-10, 01:36:00,VALID,919.222,VALID,0,VALID,93.9283,VALID,0,VALID,19.0127,VALID,20,VALID,0.102385,
2001-10-10, 01:37:00,VALID,919.239,VALID,0,VALID,94.0631,VALID,-0.0169808,VALID,18.9965,VALID,20,VALID,0.168497,
2001-10-10, 01:38:00,VALID,919.243,VALID,0,VALID,94.0733,VALID,0,VALID,18.9876,VALID,20,VALID,0.124777,
2001-10-10, 01:39:00,VALID,919.25,VALID,0,VALID,94.1674,VALID,-0.0509425,VALID,18.9613,VALID,27,VALID,0.438393,
2001-10-10, 01:40:00,VALID,919.27,VALID,0,VALID,94.2501,VALID,-0.0339617,VALID,18.9682,VALID,21,VALID,0.117599,
2001-10-10, 01:41:00,VALID,919.279,VALID,0,VALID,94.278,VALID,-0.0339617,VALID,18.9419,VALID,17,VALID,0.428486,
2001-10-10, 01:42:00,VALID,919.275,VALID,0,VALID,94.5947,VALID,-0.0339617,VALID,18.9744,VALID,15,VALID,0.742188,
2001-10-10, 01:43:00,VALID,919.274,VALID,0,VALID,94.7587,VALID,-0.0169808,VALID,18.997,VALID,7,VALID,0.732113,
2001-10-10, 01:44:00,VALID,919.27,VALID,0,VALID,94.7434,VALID,-0.0849042,VALID,19.0522,VALID,8,VALID,0.719595,
2001-10-10, 01:45:00,VALID,919.266,VALID,0,VALID,94.4472,VALID,-0.0339617,VALID,19.0651,VALID,9,VALID,1.06711,
2001-10-10, 01:46:00,VALID,919.259,VALID,0,VALID,94.6849,VALID,-0.0679233,VALID,19.117,VALID,13,VALID,0.900841,
2001-10-10, 01:47:00,VALID,919.239,VALID,0,VALID,94.8121,VALID,-0.0509425,VALID,19.1781,VALID,3,VALID,1.35958,
2001-10-10, 01:48:00,VALID,919.227,VALID,0,VALID,94.7879,VALID,-0.0169808,VALID,19.2877,VALID,11,VALID,1.39263,
2001-10-10, 01:49:00,VALID,919.206,VALID,0,VALID,94.4128,VALID,-0.0679233,VALID,19.4234,VALID,14,VALID,1.01823,
2001-10-10, 01:50:00,VALID,919.191,VALID,0,VALID,94.1572,VALID,-0.0849042,VALID,19.4594,VALID,16,VALID,1.23025,
2001-10-10, 01:51:00,VALID,919.157,VALID,0,VALID,93.8902,VALID,-0.0679233,VALID,19.5238,VALID,11,VALID,1.14149,
2001-10-10, 01:52:00,VALID,919.138,VALID,0,VALID,93.4515,VALID,-0.0339617,VALID,19.5556,VALID,20,VALID,0.896748,
2001-10-10, 01:53:00,VALID,919.136,VALID,0,VALID,93.435,VALID,-0.0849042,VALID,19.6053,VALID,12,VALID,0.997944,
2001-10-10, 01:54:00,VALID,919.134,VALID,0,VALID,93.5278,VALID,-0.0509425,VALID,19.6336,VALID,14,VALID,0.953125,
2001-10-10, 01:55:00,VALID,919.116,VALID,0,VALID,93.0751,VALID,-0.101885,VALID,19.6856,VALID,16,VALID,1.21643,
2001-10-10, 01:56:00,VALID,919.106,VALID,0,VALID,92.6555,VALID,-0.101885,VALID,19.7179,VALID,13,VALID,0.893527,
2001-10-10, 01:57:00,VALID,919.094,VALID,0,VALID,92.4113,VALID,-0.101885,VALID,19.7206,VALID,27,VALID,1.13261,
2001-10-10, 01:58:00,VALID,919.077,VALID,0,VALID,92.4991,VALID,-0.101885,VALID,19.7208,VALID,12,VALID,0.722551,
2001-10-10, 01:59:00,VALID,919.083,VALID,0,VALID,92.6275,VALID,-0.0169808,VALID,19.7139,VALID,23,VALID,0.692645,
2001-10-10, 02:00:00,VALID,919.088,VALID,0,VALID,92.6339,VALID,-0.0849042,VALID,19.7308,VALID,9,VALID,1.15391,
2001-10-10, 02:01:00,VALID,919.077,VALID,0,VALID,92.8983,VALID,-0.0339617,VALID,19.7104,VALID,9,VALID,1.10033,
2001-10-10, 02:02:00,VALID,919.079,VALID,0,VALID,92.9607,VALID,-0.0509425,VALID,19.7069,VALID,12,VALID,1.0037,
2001-10-10, 02:03:00,VALID,919.069,VALID,0,VALID,93.0001,VALID,-0.0339617,VALID,19.7042,VALID,14,VALID,0.989258,
2001-10-10, 02:04:00,VALID,919.07,VALID,0,VALID,93.0128,VALID,-0.0339617,VALID,19.6878,VALID,17,VALID,0.789463,
2001-10-10, 02:05:00,VALID,919.061,VALID,0,VALID,93.1463,VALID,-0.0679233,VALID,19.6883,VALID,20,VALID,0.900893,
2001-10-10, 02:06:00,VALID,919.056,VALID,0,VALID,93.1043,VALID,-0.0509425,VALID,19.7042,VALID,18,VALID,0.857422,
2001-10-10, 02:07:00,VALID,919.046,VALID,0,VALID,93.2048,VALID,-0.0339617,VALID,19.701,VALID,19,VALID,0.938802,
2001-10-10, 02:08:00,VALID,919.044,VALID,0,VALID,93.2137,VALID,-0.0509425,VALID,19.7044,VALID,15,VALID,0.757378,
2001-10-10, 02:09:00,VALID,919.018,VALID,0,VALID,93.0853,VALID,-0.0679233,VALID,19.6821,VALID,6,VALID,0.669271,
2001-10-10, 02:10:00,VALID,919.004,VALID,0,VALID,93.6219,VALID,-0.0679233,VALID,19.6746,VALID,4,VALID,0.461965,
2001-10-10, 02:11:00,VALID,918.988,VALID,0,VALID,93.6549,VALID,-0.0169808,VALID,19.7201,VALID,345,VALID,0.420025,
2001-10-10, 02:12:00,VALID,918.963,VALID,0,VALID,93.5634,VALID,-0.0679233,VALID,19.7298,VALID,339,VALID,0.121833,
2001-10-10, 02:13:00,VALID,918.947,VALID,0,VALID,93.5697,VALID,-0.0339617,VALID,19.7653,VALID,339,VALID,0.00108507,
2001-10-10, 02:14:00,VALID,918.943,VALID,0,VALID,93.5138,VALID,-0.0509425,VALID,19.7981,VALID,339,VALID,0,
2001-10-10, 02:15:00,VALID,918.929,VALID,0,VALID,93.351,VALID,-0.0849042,VALID,19.7974,VALID,339,VALID,0,
2001-10-10, 02:16:00,VALID,918.914,VALID,0,VALID,93.3523,VALID,-0.0509425,VALID,19.8071,VALID,4,VALID,0.188301,
2001-10-10, 02:17:00,VALID,918.898,VALID,0,VALID,93.1361,VALID,-0.0339617,VALID,19.7939,VALID,24,VALID,0.471955,
2001-10-10, 02:18:00,VALID,918.883,VALID,0,VALID,93.3498,VALID,0,VALID,19.7974,VALID,8,VALID,0.491765,
2001-10-10, 02:19:00,VALID,918.889,VALID,0,VALID,93.6473,VALID,-0.0679233,VALID,19.8265,VALID,20,VALID,0.67023,
2001-10-10, 02:20:00,VALID,918.891,VALID,0,VALID,93.3002,VALID,-0.0339617,VALID,19.8399,VALID,24,VALID,0.454527,
2001-10-10, 02:21:00,VALID,918.902,VALID,0,VALID,93.3269,VALID,-0.0339617,VALID,19.8135,VALID,27,VALID,0.654247,
2001-10-10, 02:22:00,VALID,918.909,VALID,0,VALID,93.4757,VALID,0,VALID,19.8103,VALID,33,VALID,0.8233,
2001-10-10, 02:23:00,VALID,918.921,VALID,0,VALID,93.6206,VALID,-0.0339617,VALID,19.8364,VALID,37,VALID,0.634252,
2001-10-10, 02:24:00,VALID,918.94,VALID,0,VALID,93.4985,VALID,0,VALID,19.8292,VALID,48,VALID,0.463894,
2001-10-10, 02:25:00,VALID,918.95,VALID,0,VALID,93.6384,VALID,0,VALID,19.8493,VALID,29,VALID,0.394965,
2001-10-10, 02:26:00,VALID,918.961,VALID,0,VALID,93.6664,VALID,-0.0339617,VALID,19.8553,VALID,30,VALID,0.277344,
2001-10-10, 02:27:00,VALID,918.965,VALID,0,VALID,93.6232,VALID,0,VALID,19.8682,VALID,30,VALID,0.228413,
2001-10-10, 02:28:00,VALID,918.966,VALID,0,VALID,93.641,VALID,-0.0169808,VALID,19.8714,VALID,30,VALID,0.0652449,
2001-10-10, 02:29:00,VALID,918.957,VALID,0,VALID,93.5672,VALID,-0.0169808,VALID,19.8747,VALID,30,VALID,0,
2001-10-10, 02:30:00,VALID,918.933,VALID,0,VALID,93.4985,VALID,0,VALID,19.8588,VALID,30,VALID,0.0140625,
2001-10-10, 02:31:00,VALID,918.927,VALID,0,VALID,93.5456,VALID,0,VALID,19.8421,VALID,71,VALID,0.332442,
2001-10-10, 02:32:00,VALID,918.918,VALID,0,VALID,93.4973,VALID,0.0339617,VALID,19.8222,VALID,138,VALID,0.414864,
2001-10-10, 02:33:00,VALID,918.924,VALID,0,VALID,93.4044,VALID,0.0169808,VALID,19.7894,VALID,149,VALID,0.340234,
2001-10-10, 02:34:00,VALID,918.915,VALID,0,VALID,93.4019,VALID,0.0169808,VALID,19.7487,VALID,152,VALID,0.598067,
2001-10-10, 02:35:00,VALID,918.919,VALID,0,VALID,93.4693,VALID,0.0339617,VALID,19.6873,VALID,163,VALID,0.70228,
2001-10-10, 02:36:00,VALID,918.898,VALID,0,VALID,93.6511,VALID,0.0509425,VALID,19.619,VALID,152,VALID,0.739383,
2001-10-10, 02:37:00,VALID,918.888,VALID,0,VALID,93.9614,VALID,0,VALID,19.5606,VALID,143,VALID,0.892628,
2001-10-10, 02:38:00,VALID,918.893,VALID,0,VALID,94.1814,VALID,0.0339617,VALID,19.5154,VALID,130,VALID,0.547276,
2001-10-10, 02:39:00,VALID,918.888,VALID,0,VALID,94.1293,VALID,0,VALID,19.4669,VALID,127,VALID,0.296875,
2001-10-10, 02:40:00,VALID,918.872,VALID,0,VALID,94.3874,VALID,0.0339617,VALID,19.4222,VALID,127,VALID,0.289258,
2001-10-10, 02:41:00,VALID,918.88,VALID,0,VALID,94.7167,VALID,0.0509425,VALID,19.3958,VALID,127,VALID,0.373915,
2001-10-10, 02:42:00,VALID,918.869,VALID,0,VALID,94.8592,VALID,0.0509425,VALID,19.3665,VALID,127,VALID,0.144965,
2001-10-10, 02:43:00,VALID,918.868,VALID,0,VALID,94.9329,VALID,0.0679233,VALID,19.3541,VALID,127,VALID,0.349451,
2001-10-10, 02:44:00,VALID,918.88,VALID,0,VALID,94.6926,VALID,0.0509425,VALID,19.3183,VALID,79,VALID,0.407689,
2001-10-10, 02:45:00,VALID,918.869,VALID,0,VALID,94.1318,VALID,0.0509425,VALID,19.215,VALID,65,VALID,0.529561,
2001-10-10, 02:46:00,VALID,918.861,VALID,0,VALID,95.2445,VALID,0.0849042,VALID,19.1603,VALID,78,VALID,0.912162,
2001-10-10, 02:47:00,VALID,918.846,VALID,0,VALID,96.1308,VALID,-0.0339617,VALID,19.2487,VALID,89,VALID,0.874107,
2001-10-10, 02:48:00,VALID,918.83,VALID,0,VALID,95.6539,VALID,-0.0849042,VALID,19.2805,VALID,87,VALID,0.725123,
2001-10-10, 02:49:00,VALID,918.816,VALID,0,VALID,95.8281,VALID,-0.0679233,VALID,19.3009,VALID,92,VALID,0.523015,
2001-10-10, 02:50:00,VALID,918.804,VALID,0,VALID,95.6107,VALID,-0.0169808,VALID,19.3034,VALID,92,VALID,0.0642149,
2001-10-10, 02:51:00,VALID,918.773,VALID,0,VALID,95.3589,VALID,-0.0509425,VALID,19.2847,VALID,91,VALID,0,
2001-10-10, 02:52:00,VALID,918.759,VALID,0,VALID,95.1122,VALID,-0.0849042,VALID,19.2457,VALID,91,VALID,0,
2001-10-10, 02:53:00,VALID,918.741,VALID,0,VALID,95.0512,VALID,-0.0339617,VALID,19.1968,VALID,91,VALID,0,
2001-10-10, 02:54:00,VALID,918.714,VALID,0,VALID,95.1262,VALID,-0.101885,VALID,19.1943,VALID,91,VALID,0,
2001-10-10, 02:55:00,VALID,918.692,VALID,0,VALID,95.2495,VALID,-0.101885,VALID,19.1677,VALID,91,VALID,0,
2001-10-10, 02:56:00,VALID,918.664,VALID,0,VALID,95.2915,VALID,-0.0679233,VALID,19.1588,VALID,91,VALID,0,
2001-10-10, 02:57:00,VALID,918.642,VALID,0,VALID,95.289,VALID,-0.101885,VALID,19.1458,VALID,75,VALID,0.009375,
2001-10-10, 02:58:00,VALID,918.604,VALID,0,VALID,95.3691,VALID,-0.0509425,VALID,19.1364,VALID,360,VALID,0.167101,
2001-10-10, 02:59:00,VALID,918.585,VALID,0,VALID,95.1516,VALID,-0.118866,VALID,19.1039,VALID,360,VALID,0.137587,
2001-10-10, 03:00:00,VALID,918.564,VALID,0,VALID,95.5089,VALID,-0.101885,VALID,19.0808,VALID,341,VALID,0.547075,
2001-10-10, 03:01:00,VALID,918.551,VALID,0,VALID,96.0634,VALID,-0.0849042,VALID,19.1396,VALID,318,VALID,0.340666,
2001-10-10, 03:02:00,VALID,918.526,VALID,0,VALID,96.221,VALID,-0.101885,VALID,19.1749,VALID,278,VALID,0.351768,
2001-10-10, 03:03:00,VALID,918.517,VALID,0,VALID,96.2884,VALID,-0.0849042,VALID,19.2174,VALID,278,VALID,0.0538429,
2001-10-10, 03:04:00,VALID,918.507,VALID,0,VALID,96.1358,VALID,-0.0849042,VALID,19.2201,VALID,278,VALID,0,
2001-10-10, 03:05:00,VALID,918.508,VALID,0,VALID,96.2694,VALID,-0.118866,VALID,19.2462,VALID,278,VALID,0,
2001-10-10, 03:06:00,VALID,918.516,VALID,0,VALID,96.3393,VALID,-0.0679233,VALID,19.2753,VALID,278,VALID,0,
2001-10-10, 03:07:00,VALID,918.547,VALID,0,VALID,96.3088,VALID,-0.101885,VALID,19.3011,VALID,268,VALID,0.169872,
2001-10-10, 03:08:00,VALID,918.568,VALID,0,VALID,96.3914,VALID,-0.101885,VALID,19.3464,VALID,264,VALID,0.200521,
2001-10-10, 03:09:00,VALID,918.582,VALID,0,VALID,96.4016,VALID,-0.101885,VALID,19.3953,VALID,264,VALID,0.237331,
2001-10-10, 03:10:00,VALID,918.603,VALID,0,VALID,96.2503,VALID,-0.0849042,VALID,19.4075,VALID,267,VALID,0.142681,
2001-10-10, 03:11:00,VALID,918.605,VALID,0,VALID,95.912,VALID,-0.0849042,VALID,19.3854,VALID,273,VALID,0.232772,
2001-10-10, 03:12:00,VALID,918.618,VALID,0,VALID,94.9952,VALID,-0.101885,VALID,19.3044,VALID,295,VALID,0.139423,
2001-10-10, 03:13:00,VALID,918.616,VALID,0,VALID,94.9482,VALID,-0.101885,VALID,19.2042,VALID,356,VALID,0.306756,
2001-10-10, 03:14:00,VALID,918.611,VALID,0,VALID,95.3729,VALID,-0.101885,VALID,19.1883,VALID,28,VALID,0.719572,
2001-10-10, 03:15:00,VALID,918.597,VALID,0,VALID,95.851,VALID,-0.0849042,VALID,19.165,VALID,30,VALID,0.837416,
2001-10-10, 03:16:00,VALID,918.593,VALID,0,VALID,96.0774,VALID,-0.0849042,VALID,19.1689,VALID,39,VALID,0.769097,
2001-10-10, 03:17:00,VALID,918.596,VALID,0,VALID,96.3266,VALID,-0.0339617,VALID,19.1777,VALID,40,VALID,0.709418,
2001-10-10, 03:18:00,VALID,918.609,VALID,0,VALID,96.0354,VALID,0.0339617,VALID,19.1379,VALID,40,VALID,0.63014,
2001-10-10, 03:19:00,VALID,918.584,VALID,0,VALID,95.9782,VALID,0.0169808,VALID,19.0768,VALID,31,VALID,0.720439,
2001-10-10, 03:20:00,VALID,918.584,VALID,0,VALID,96.1168,VALID,0.0339617,VALID,19.0187,VALID,18,VALID,0.886607,
2001-10-10, 03:21:00,VALID,918.579,VALID,0,VALID,96.4092,VALID,0,VALID,19.0023,VALID,20,VALID,0.979464,
2001-10-10, 03:22:00,VALID,918.566,VALID,0,VALID,96.5822,VALID,0.0169808,VALID,18.9931,VALID,21,VALID,1.16838,
2001-10-10, 03:23:00,VALID,918.553,VALID,0,VALID,96.9179,VALID,0.0509425,VALID,19.0445,VALID,21,VALID,1.07312,
2001-10-10, 03:24:00,VALID,918.549,VALID,0,VALID,96.7373,VALID,0.0509425,VALID,19.0639,VALID,13,VALID,0.926953,
2001-10-10, 03:25:00,VALID,918.553,VALID,0,VALID,96.4499,VALID,0.0169808,VALID,19.0542,VALID,13,VALID,0.95847,
2001-10-10, 03:26:00,VALID,918.558,VALID,0,VALID,96.6318,VALID,0.0339617,VALID,19.0574,VALID,15,VALID,0.783995,
2001-10-10, 03:27:00,VALID,918.552,VALID,0,VALID,96.6826,VALID,0,VALID,19.0763,VALID,15,VALID,0.627604,
2001-10-10, 03:28:00,VALID,918.567,VALID,0,VALID,96.6254,VALID,0.0169808,VALID,19.0798,VALID,15,VALID,0.531651,
2001-10-10, 03:29:00,VALID,918.578,VALID,0,VALID,96.7221,VALID,0.0169808,VALID,19.0927,VALID,15,VALID,0.579527,
2001-10-10, 03:30:00,VALID,918.59,VALID,0,VALID,96.6826,VALID,0.0509425,VALID,19.1253,VALID,18,VALID,0.482812,
2001-10-10, 03:31:00,VALID,918.59,VALID,0,VALID,96.6241,VALID,0,VALID,19.132,VALID,28,VALID,0.347461,
2001-10-10, 03:32:00,VALID,918.602,VALID,0,VALID,96.6407,VALID,-0.0169808,VALID,19.1483,VALID,39,VALID,0.334852,
2001-10-10, 03:33:00,VALID,918.606,VALID,0,VALID,96.6025,VALID,-0.0849042,VALID,19.1779,VALID,39,VALID,0.371745,
2001-10-10, 03:34:00,VALID,918.593,VALID,0,VALID,96.4677,VALID,-0.101885,VALID,19.2003,VALID,37,VALID,0.216427,